Location: Observatorio Las Palmas
(29.0667°N, 110.9333°W)
Time: 11:06:50
(UTC-07:00)

Skynet4D Del rocket - Visible Passes

Search period start: 01 September 2015 00:00
Search period end: 11 September 2015 00:00
Orbit: 763 x 1291 km, 26.9° (Epoch: 30 August)

Date Brightness Start Highest point End Pass type
(mag) Time Alt. Az. Time Alt. Az. Time Alt. Az.
01 Sep 6.1 04:14:28 10° S 04:17:25 14° SSE 04:20:50 10° ESE visible
02 Sep 5.6 04:53:18 10° SSW 04:58:27 27° SSE 05:04:24 10° E visible
03 Sep 5.8 03:46:43 15° SSE 03:47:27 16° SSE 03:51:21 10° ESE visible
03 Sep 5.0 05:33:27 10° SW 05:39:35 44° SSE 05:46:37 10° E visible
04 Sep 5.2 04:25:45 21° SSW 04:28:28 30° SSE 04:34:24 10° E visible
05 Sep 5.9 03:19:06 17° SE 03:19:06 17° SE 03:21:44 10° ESE visible
05 Sep 4.6 05:04:45 15° SW 05:09:37 48° SSE 05:16:27 10° E visible
06 Sep 4.8 03:58:05 33° SSE 03:58:34 33° SSE 04:04:24 10° E visible
07 Sep 6.3 02:51:24 12° ESE 02:51:24 12° ESE 02:52:05 10° ESE visible
07 Sep 4.3 04:37:02 30° SW 04:39:45 52° SSE 04:46:18 10° E visible
08 Sep 5.1 03:30:21 31° SE 03:30:21 31° SE 03:34:26 10° E visible
08 Sep 4.1 05:15:59 15° WSW 05:21:05 69° S 05:28:00 10° E visible
09 Sep 3.9 04:09:16 53° SSW 04:09:56 56° SSE 04:16:13 10° E visible
10 Sep 5.8 03:02:34 20° ESE 03:02:34 20° ESE 03:04:31 10° E visible
10 Sep 3.9 04:48:12 29° WSW 04:51:17 71° S 04:57:51 10° E visible
